Location: Cotdoussan
(43.0366°N, 0.0068°E)
Time: 03:32:04
(UTC+00:00)

ARIANE 6 FM1 Upper Stage - Pass Details

Date: 26 January 2026
Orbit: 522 x 609 km, 62.0° (Epoch: 10 February)

Event Time Altitude Azimuth Distance (km) Brightness Sun altitude
Rises 17:30:04 0° 212° (SSW) 2,718 7.1 -5.1°
Reaches altitude 10° 17:32:18 10° 210° (SSW) 1,814 6.1 -5.5°
Maximum altitude 17:36:21 73° 126° (SE) 567 2.6 -6.2°
Drops below altitude 10° 17:40:21 10° 42° (NE) 1,784 4.7 -6.9°
Enters shadow 17:41:14 - 41° (NE) 2,143 5.1 -7.1°
